Location: Chacón
(10.5789°N, 66.9317°W)
Time: 21:21:06
(UTC+00:00)

Sakura Rocket - Pass Details

Date: 14 August 2024
Orbit: 475 x 1710 km, 28.7° (Epoch: 09 September)

Event Time Altitude Azimuth Distance (km) Brightness Sun altitude
Exits shadow 08:34:16 22° 315° (NW) 2,075 5.5 -25.1°
Maximum altitude 08:38:55 60° 28° (NNE) 1,337 4.8 -24.1°
Drops below altitude 10° 08:47:53 10° 107° (ESE) 3,603 7.7 -22.0°
Sets 08:51:26 0° 110° (ESE) 4,731 8.3 -21.2°
